This is the latest recevied weather packets stored in our database for station/object KC9GSD. If no packets are shown the sender has not sent any weather packets the latest 10 day(s).
| Time | Temp. | Humidity | Pressure | Rain* | Wind** | Luminosity | Snow |
|---|---|---|---|---|---|---|---|
| 1777691893 | 12.78° C | 87% | 1014 hPa | 0 mm | - | 0 W/m² | - |
| 1777691590 | 12.78° C | 88% | 1014 hPa | 0 mm | - | 0 W/m² | - |
| 1777691289 | 12.78° C | 88% | 1014.3 hPa | 0 mm | - | 0 W/m² | - |
| 1777690987 | 12.78° C | 87% | 1014.4 hPa | 0 mm | - | 0 W/m² | - |
| 1777690684 | 12.78° C | 87% | 1014.4 hPa | 0 mm | - | 0 W/m² | - |
| 1777690381 | 12.78° C | 88% | 1014.3 hPa | 0 mm | - | 0 W/m² | - |
| 1777690079 | 12.78° C | 87% | 1014.5 hPa | 0 mm | - | 0 W/m² | - |
| 1777689776 | 12.78° C | 86% | 1014.3 hPa | 0 mm | - | 0 W/m² | - |
| 1777689474 | 12.78° C | 87% | 1014.2 hPa | 0 mm | - | 0 W/m² | - |
| 1777689172 | 12.78° C | 85% | 1014.2 hPa | 0 mm | - | 0 W/m² | - |
| 1777688869 | 12.78° C | 85% | 1014.3 hPa | 0 mm | - | 0 W/m² | - |
| 1777688565 | 12.78° C | 86% | 1014.2 hPa | 0 mm | - | 0 W/m² | - |
| 1777688263 | 12.78° C | 85% | 1014.1 hPa | 0 mm | - | 0 W/m² | - |
| 1777687960 | 12.78° C | 84% | 1014.2 hPa | 0 mm | - | 0 W/m² | - |
| 1777687657 | 12.78° C | 83% | 1013.9 hPa | 0 mm | - | 0 W/m² | - |
| 1777687354 | 12.78° C | 83% | 1014 hPa | 0 mm | - | 0 W/m² | - |
| 1777687052 | 12.78° C | 83% | 1014.1 hPa | 0 mm | - | 0 W/m² | - |
| 1777686748 | 12.78° C | 82% | 1014.1 hPa | 0 mm | - | 0 W/m² | - |
| 1777686446 | 12.78° C | 84% | 1013.8 hPa | 0 mm | - | 0 W/m² | - |
| 1777686142 | 12.78° C | 84% | 1013.5 hPa | 0 mm | - | 0 W/m² | - |
| 1777685839 | 13.33° C | 84% | 1013.9 hPa | 0 mm | - | 0 W/m² | - |
| 1777685534 | 13.33° C | 83% | 1013.7 hPa | 0 mm | - | 0 W/m² | - |
| 1777685231 | 13.33° C | 79% | 1013.7 hPa | 0 mm | - | 0 W/m² | - |
| 1777684929 | 13.33° C | 82% | 1013.7 hPa | 0 mm | - | 0 W/m² | - |
| 1777684626 | 13.33° C | 79% | 1013.7 hPa | 0 mm | - | 0 W/m² | - |
* Rain latest hour (hover to see other rain measurements)
** Current wind speed in m/s (hover to see current wind gust speed)